This is the latest recevied weather packets stored in our database for station/object XE2RCS-34. If no packets are shown the sender has not sent any weather packets the latest 10 day(s).
| Time | Temp. | Humidity | Pressure | Rain* | Wind** | Luminosity | Snow |
|---|---|---|---|---|---|---|---|
| 1777998207 | 23.33° C | 41% | 1045.9 hPa | - | - | - | - |
| 1777997307 | 22.78° C | 41% | 1046.1 hPa | - | - | - | - |
| 1777996407 | 22.22° C | 41% | 1046 hPa | - | - | - | - |
| 1777995507 | 21.67° C | 40% | 1046.1 hPa | - | - | - | - |
| 1777994607 | 21.11° C | 39% | 1046.2 hPa | - | - | - | - |
| 1777993707 | 21.11° C | 39% | 1046 hPa | - | - | - | - |
| 1777992807 | 20.56° C | 38% | 1045.9 hPa | - | - | - | - |
| 1777991907 | 20.56° C | 37% | 1045.9 hPa | - | - | - | - |
| 1777991007 | 20.56° C | 37% | 1045.8 hPa | - | - | - | - |
| 1777989209 | 20° C | 38% | 1045.7 hPa | - | - | - | - |
| 1777988309 | 20° C | 37% | 1045.6 hPa | - | - | - | - |
| 1777987409 | 20° C | 37% | 1045.8 hPa | - | - | - | - |
| 1777986509 | 20° C | 37% | 1045.6 hPa | - | - | - | - |
| 1777985609 | 20° C | 38% | 1045.5 hPa | - | - | - | - |
| 1777984709 | 20° C | 39% | 1045.2 hPa | - | - | - | - |
| 1777983809 | 20° C | 40% | 1045 hPa | - | - | - | - |
| 1777982909 | 20° C | 41% | 1045 hPa | - | - | - | - |
| 1777982008 | 20° C | 41% | 1044.9 hPa | - | - | - | - |
| 1777981108 | 20° C | 41% | 1044.9 hPa | - | - | - | - |
| 1777980208 | 20° C | 42% | 1044.9 hPa | - | - | - | - |
| 1777979308 | 20° C | 41% | 1044.9 hPa | - | - | - | - |
| 1777978408 | 20° C | 40% | 1044.7 hPa | - | - | - | - |
| 1777977508 | 20° C | 38% | 1044.8 hPa | - | - | - | - |
| 1777976608 | 20° C | 38% | 1044.8 hPa | - | - | - | - |
| 1777975708 | 20.56° C | 37% | 1045 hPa | - | - | - | - |
* Rain since midnight (hover to see other rain measurements)
** Current wind speed in m/s (hover to see current wind gust speed)